Flag Weather past 2 weeks in Victorville, California, U.S.A.

Now
52 °F

Overcast.


Feels Like: 50 °F
Forecast: 42 / 60 °F
Wind: 6 mph from Southwest

Location: George Air Force Base / Victorvi

Current Time: Nov 21, 2014 at 12:49:59 AM

Latest Report: Nov 21, 2014 at 12:15 AM


Visibility: 10 mi

Pressure: 29.94 "Hg

Humidity: 72%

Dew point: 43 °F

Location of VictorvilleLocation

Historic Weather in Victorville — Graph

°F

Victorville temperature yesterday

Maximum temperature yesterday: 64 °F (at 12:35 PM)
Minimum temperature yesterday: 41 °F (at 4:55 AM)
Average temperature yesterday: 53 °F

Past Weeks' High & Low Weather Summary

 TemperatureHumidityPressure
High81 °F (Nov 8, 2:35 PM)87% (Nov 11, 4:15 AM)30.35 "Hg (Nov 11, 4:15 AM)
Low30 °F (Nov 17, 6:15 AM)8% (Nov 16, 10:55 AM)29.79 "Hg (Nov 10, 12:55 PM)
Average55 °F37%30.08 "Hg
* Reported Nov 5 11:15 PM — Nov 20 11:15 PM, Victorville, Weather by CustomWeather, © 2014

Note: Actual official high and low records may vary slightly from our data, if they occured in-between our weather recording intervals... More about our weather records

Advertising

Victorville weather history for previous 24 hours

 ConditionsComfort  
Time TempWeatherWind HumidityBarometerVisibility
11:15 PM
Nov 20
54 °FPartly cloudy.14 mph67%29.95 "Hg10 mi
10:55 PM54 °FPassing clouds.14 mph67%29.96 "Hg10 mi
10:35 PM52 °FPassing clouds.10 mph77%29.97 "Hg10 mi
10:15 PM52 °FPassing clouds.9 mph77%29.99 "Hg10 mi
9:55 PM52 °FClear.8 mph77%29.99 "Hg10 mi
9:15 PM52 °FClear.5 mph77%29.99 "Hg10 mi
8:55 PM52 °FClear.6 mph77%29.99 "Hg10 mi
8:35 PM52 °FClear.6 mph77%29.99 "Hg10 mi
8:15 PM54 °FClear.7 mph72%29.98 "Hg10 mi
7:15 PM55 °FClear.10 mph63%29.96 "Hg10 mi
6:55 PM55 °FClear.12 mph63%29.95 "Hg10 mi
6:35 PM55 °FClear.9 mph63%29.98 "Hg10 mi
6:15 PM55 °FClear.13 mph63%29.98 "Hg10 mi
5:55 PM55 °FClear.6 mph63%29.98 "Hg10 mi
5:15 PM57 °FClear.3 mph51%30.00 "Hg10 mi
4:55 PM57 °FClear.12 mph51%30.02 "Hg10 mi
4:15 PM61 °FScattered clouds.10 mph48%29.99 "Hg10 mi
3:55 PM61 °FScattered clouds.13 mph48%29.99 "Hg10 mi
3:15 PM63 °FScattered clouds.12 mph42%29.99 "Hg10 mi
2:55 PM63 °FScattered clouds.12 mph39%29.99 "Hg10 mi
2:35 PM64 °FScattered clouds.12 mph34%29.99 "Hg10 mi
2:15 PM64 °FScattered clouds.12 mph34%29.99 "Hg10 mi
1:55 PM64 °FScattered clouds.5 mph34%30.00 "Hg10 mi
1:35 PM64 °FScattered clouds.5 mph34%30.00 "Hg10 mi
1:15 PM64 °FScattered clouds.6 mph34%30.01 "Hg10 mi
12:55 PM64 °FScattered clouds.3 mph34%30.02 "Hg10 mi
12:35 PM64 °FScattered clouds.7 mph34%30.03 "Hg10 mi
12:15 PM63 °FScattered clouds.8 mph37%30.04 "Hg10 mi
11:55 AM63 °FScattered clouds.7 mph37%30.06 "Hg10 mi
11:15 AM63 °FSunny.8 mph39%30.08 "Hg10 mi
10:55 AM63 °FScattered clouds.6 mph39%30.08 "Hg10 mi
10:35 AM61 °FSunny.No wind42%30.08 "Hg10 mi
10:15 AM61 °FSunny.No wind31%30.10 "Hg10 mi
9:55 AM59 °FSunny.5 mph36%30.11 "Hg10 mi
9:15 AM57 °FSunny.5 mph51%30.12 "Hg10 mi
8:55 AM55 °FSunny.3 mph51%30.11 "Hg10 mi
8:15 AM52 °FSunny.5 mph50%30.12 "Hg10 mi
7:55 AM48 °FCool.6 mph50%30.11 "Hg10 mi
7:35 AM46 °FSunny.7 mph50%30.11 "Hg10 mi
7:15 AM45 °FSunny.8 mph46%30.12 "Hg10 mi
6:55 AM43 °FSunny.6 mph49%30.11 "Hg10 mi
6:15 AM43 °FClear.9 mph42%30.10 "Hg10 mi
5:55 AM43 °FClear.7 mph39%30.10 "Hg10 mi
5:35 AM43 °FClear.7 mph49%30.10 "Hg10 mi
5:15 AM41 °FQuite cool.8 mph53%30.10 "Hg10 mi
4:55 AM41 °FQuite cool.7 mph53%30.10 "Hg10 mi
4:35 AM43 °FQuite cool.7 mph53%30.10 "Hg10 mi
4:15 AM45 °FQuite cool.6 mph53%30.10 "Hg10 mi
3:55 AM45 °FQuite cool.6 mph53%30.10 "Hg10 mi
3:35 AM45 °FQuite cool.5 mph61%30.10 "Hg10 mi
3:15 AM43 °FQuite cool.8 mph57%30.09 "Hg10 mi
2:55 AM45 °FQuite cool.6 mph53%30.09 "Hg10 mi
2:35 AM46 °FCool.5 mph50%30.09 "Hg10 mi
2:15 AM46 °FCool.3 mph50%30.09 "Hg10 mi
1:55 AM45 °FQuite cool.5 mph53%30.09 "Hg10 mi
1:35 AM45 °FClear.5 mph53%30.09 "Hg10 mi
1:15 AM46 °FClear.5 mph53%30.09 "Hg10 mi
12:55 AM45 °FClear.6 mph53%30.09 "Hg10 mi
12:15 AM48 °FClear.3 mph46%30.10 "Hg10 mi
Weather by CustomWeather, © 2014

See weather overviewHow to use our weather pages